Flag for Germany Weather past 2 weeks in Schwerin, Mecklenburg-Western Pomerania, Germany

Now
48 °F

Partly sunny.


Feels Like: 45 °F
Forecast: 43 / 50 °F
Wind: 6 mph from Southwest

Location: Schwerin

Current Time: Mar 28, 2015 at 3:44:13 PM

Latest Report: Mar 28, 2015 at 3:00 PM


Visibility: 28 mi

Pressure: 29.99 "Hg

Humidity: 51%

Dew point: 30 °F

Location of SchwerinLocation

Historic Weather in Schwerin — Graph

°F

Schwerin temperature yesterday

Maximum temperature yesterday: 47 °F (at 2:00 PM)
Minimum temperature yesterday: 40 °F (at 6:00 AM)
Average temperature yesterday: 42 °F

Past Weeks' High & Low Weather Summary

 TemperatureHumidityPressure
High59 °F (Mar 17, 3:00 PM)98% (Mar 21, 12:00 PM)30.51 "Hg (Mar 21, 12:00 PM)
Low29 °F (Mar 23, 6:00 AM)22% (Mar 19, 3:00 PM)29.65 "Hg (Mar 26, 1:00 AM)
Average42 °F73%30.17 "Hg
* Reported Mar 13 2:00 PM — Mar 28 2:00 PM, Schwerin, Weather by CustomWeather, © 2015

Note: Actual official high and low records may vary slightly from our data, if they occured in-between our weather recording intervals... More about our weather records

Advertising

Schwerin weather history for previous 24 hours

 ConditionsComfort  
Time TempWeatherWind HumidityBarometerVisibility
2:00 PM
Sat, Mar 28
47 °FOvercast.7 mph52%30.02 "Hg25 mi
1:00 PM46 °FOvercast.6 mph61%30.05 "Hg11 mi
12:00 PM45 °FOvercast.5 mph62%30.08 "Hg16 mi
11:00 AM43 °FOvercast.3 mph82%30.11 "Hg5 mi
9:00 AM40 °FFog.3 mph94%30.13 "Hg3 mi
8:00 AM39 °FLow clouds.2 mph93%30.14 "Hg6 mi
7:00 AM39 °FOvercast.2 mph92%30.14 "Hg7 mi
6:00 AM39 °FOvercast.3 mph91%30.14 "Hg7 mi
5:00 AM40 °FOvercast.5 mph89%30.13 "Hg5 mi
3:00 AM40 °FFog.3 mph93%30.11 "Hg2 mi
2:00 AM40 °FFog.3 mph90%30.11 "Hg2 mi
1:00 AM42 °FFog.5 mph90%30.09 "Hg2 mi
12:00 AM42 °FOvercast.3 mph93%30.07 "Hg2 mi
11:00 PM
Fri, Mar 27
42 °FLight rain. Low clouds.5 mph93%30.05 "Hg3 mi
9:00 PM42 °FOvercast.3 mph92%30.01 "Hg6 mi
8:00 PM42 °FOvercast.3 mph94%29.98 "Hg5 mi
7:00 PM42 °FPassing clouds.3 mph93%29.96 "Hg6 mi
6:00 PM42 °FOvercast.2 mph93%29.93 "Hg16 mi
5:00 PM43 °FDrizzle. Overcast.2 mph89%29.91 "Hg9 mi
3:00 PM45 °FOvercast.5 mph75%29.88 "Hg19 mi
Weather by CustomWeather, © 2015

See weather overviewHow to use our weather pages